Fort Dix, NJ

7:38 PM EDT on July 25, 2016 (GMT -0400)
McGuire Air Force Base

Weather History for KWRI - June, 2013

Change the Weather History Date:

Sunday, June 23, 2013

  Actual Average Record
Temperature  
Mean Temperature 73 °F -  
Max Temperature 87 °F 82 °F 93 °F (2010)
Min Temperature 60 °F 61 °F 52 °F (2007)
Cooling Degree Days 8    
Growing Degree Days 23 (Base 50)    
Moisture  
Dew Point 70 °F    
Average Humidity 86    
Maximum Humidity 100    
Minimum Humidity 55    
Precipitation  
Precipitation 0.91 in - - ()
Sea Level Pressure  
Sea Level Pressure 30.10 in    
Wind  
Wind Speed 6 mph (SW)    
Max Wind Speed 21 mph    
Max Gust Speed 28 mph    
Visibility 6 miles    
Events Fog , Rain , Thunderstorm    
Averages and records for this station are not official NWS values.
T = Trace of Precipitation, MM = Missing Value Source: NWS Daily Summary

Daily Weather History Graph

Daily Weather History Graph

Search for Another Location

Airport or City:

Trip Planner

Search our weather history database for the weather conditions in past years. The results will help you decide how hot, cold, wet, or windy it might be!

Date:

Astronomy

Jun. 23, 2013 Rise Set
Actual Time 5:30 AM EDT 8:31 PM EDT
Civil Twilight 4:57 AM EDT 9:03 PM EDT
Nautical Twilight 4:15 AM EDT 9:45 PM EDT
Astronomical Twilight 3:26 AM EDT 10:34 PM EDT
Moon 8:41 PM EDT (6/23) 5:44 AM EDT (6/23)
Length of Visible Light 16h 06m
Length of Day
15h 00m
Full, 100% of the Moon is Illuminated
Jun 23
Full
Jun 30
Last Quarter
Jul 8
New
Jul 15
First Quarter
Jul 22
Full

Hourly Weather History & Observations

Time (EDT) Temp. Heat Index Dew Point Humidity Pressure Visibility Wind Dir Wind Speed Gust Speed Precip Events Conditions
12:58 AM 62.6 °F - 56.8 °F 81% 30.19 in 10.0 mi Calm Calm - N/A   Clear
1:58 AM 62.4 °F - 56.8 °F 82% 30.20 in 10.0 mi SSW 2.3 mph - N/A   Clear
2:58 AM 60.6 °F - 56.3 °F 86% 30.19 in 10.0 mi South 4.6 mph - N/A   Clear
3:58 AM 60.3 °F - 56.3 °F 87% 30.17 in 10.0 mi SSE 2.3 mph - N/A   Clear
4:58 AM 60.1 °F - 56.3 °F 87% 30.18 in 10.0 mi Calm Calm - N/A   Clear
5:58 AM 61.2 °F - 57.9 °F 89% 30.19 in 10.0 mi Calm Calm - N/A   Clear
6:58 AM 66.0 °F - 60.4 °F 82% 30.19 in 10.0 mi SW 2.3 mph - N/A   Clear
7:58 AM 72.0 °F - 63.5 °F 75% 30.21 in 10.0 mi SW 5.8 mph - N/A   Clear
8:58 AM 75.9 °F - 66.4 °F 72% 30.20 in 10.0 mi SSW 6.9 mph - N/A   Clear
9:58 AM 80.1 °F 82.7 °F 68.2 °F 67% 30.19 in 10.0 mi SSW 6.9 mph - N/A   Clear
10:41 AM 82.4 °F 85.4 °F 68.0 °F 62% 30.17 in 10.0 mi SW 6.9 mph - N/A Rain Light Rain
10:51 AM 82.4 °F 85.4 °F 68.0 °F 62% 30.17 in 10.0 mi WSW 6.9 mph - N/A   Clear
10:58 AM 82.6 °F 85.7 °F 68.5 °F 62% 30.18 in 10.0 mi SW 8.1 mph - 0.00 in   Clear
11:58 AM 84.7 °F 88.2 °F 68.7 °F 58% 30.16 in 10.0 mi SSW 10.4 mph - N/A   Clear
12:56 PM 86.0 °F 90.4 °F 69.8 °F 58% 30.14 in 10.0 mi SSW 12.7 mph 19.6 mph N/A Rain Light Rain
12:58 PM 86.0 °F 90.4 °F 69.8 °F 58% 30.14 in 10.0 mi SSW 12.7 mph 19.6 mph N/A Rain Light Rain
12:59 PM 86.0 °F 89.4 °F 68.0 °F 55% 30.13 in 10.0 mi SSW 11.5 mph 19.6 mph N/A   Partly Cloudy
1:58 PM 86.5 °F 91.0 °F 69.6 °F 57% 30.13 in 10.0 mi SSW 11.5 mph - 0.00 in   Scattered Clouds
2:10 PM 82.4 °F 86.3 °F 69.8 °F 66% 30.13 in 10.0 mi South 20.7 mph 27.6 mph N/A   Mostly Cloudy
2:11 PM 80.6 °F 83.9 °F 69.8 °F 70% 30.12 in 10.0 mi South 17.3 mph 27.6 mph N/A Rain Light Rain
2:20 PM 77.0 °F - 69.8 °F 78% 30.12 in 10.0 mi SSE 9.2 mph 27.6 mph N/A   Mostly Cloudy
2:58 PM 83.7 °F 89.4 °F 72.5 °F 69% 30.11 in 10.0 mi South 8.1 mph - 0.00 in   Scattered Clouds
3:58 PM 84.0 °F 88.4 °F 70.2 °F 63% 30.09 in 10.0 mi South 9.2 mph 17.3 mph N/A   Mostly Cloudy
4:58 PM 82.6 °F 86.6 °F 70.3 °F 66% 30.08 in 10.0 mi South 10.4 mph - N/A   Mostly Cloudy
5:58 PM 81.1 °F 85.0 °F 70.9 °F 71% 30.07 in 10.0 mi South 5.8 mph - N/A   Mostly Cloudy
6:32 PM 78.8 °F - 71.6 °F 78% 30.07 in 10.0 mi SW 5.8 mph - N/A Rain Light Rain
6:35 PM 78.8 °F - 73.4 °F 83% 30.08 in 8.0 mi WSW 10.4 mph - N/A Rain , Thunderstorm Heavy Thunderstorms and Rain
6:37 PM 77.0 °F - 73.4 °F 89% 30.08 in 4.0 mi WSW 18.4 mph - N/A Rain , Thunderstorm Heavy Thunderstorms and Rain
6:39 PM 77.0 °F - 73.4 °F 89% 30.08 in 2.5 mi WSW 20.7 mph 24.2 mph N/A Rain , Thunderstorm Heavy Thunderstorms and Rain
6:41 PM 75.2 °F - 73.4 °F 94% 30.07 in 1.8 mi WSW 16.1 mph 24.2 mph N/A Rain , Thunderstorm Heavy Thunderstorms and Rain
6:42 PM 75.2 °F - 73.4 °F 94% 30.08 in 1.2 mi West 13.8 mph 24.2 mph N/A Rain , Thunderstorm Heavy Thunderstorms and Rain
6:43 PM 75.2 °F - 71.6 °F 89% 30.07 in 1.0 mi West 13.8 mph 24.2 mph N/A Rain , Thunderstorm Heavy Thunderstorms and Rain
6:45 PM 73.4 °F - 71.6 °F 94% 30.07 in 0.8 mi West 10.4 mph 24.2 mph N/A Rain , Thunderstorm Heavy Thunderstorms and Rain
6:46 PM 73.4 °F - 71.6 °F 94% 30.07 in 0.8 mi West 10.4 mph 24.2 mph N/A Rain , Thunderstorm Heavy Thunderstorms and Rain
6:47 PM 73.4 °F - 71.6 °F 94% 30.07 in 0.8 mi WSW 10.4 mph 24.2 mph N/A Rain , Thunderstorm Heavy Thunderstorms and Rain
6:48 PM 73.4 °F - 71.6 °F 94% 30.07 in 0.5 mi WSW 10.4 mph 24.2 mph N/A Fog , Rain , Thunderstorm Heavy Thunderstorms and Rain
6:55 PM 73.4 °F - 71.6 °F 94% 30.07 in 0.8 mi WSW 10.4 mph - N/A Rain , Thunderstorm Heavy Thunderstorms and Rain
6:56 PM 73.4 °F - 71.6 °F 94% 30.07 in 0.8 mi WSW 11.5 mph - N/A Rain , Thunderstorm Heavy Thunderstorms and Rain
6:58 PM 73.2 °F - 71.6 °F 95% 30.08 in 0.8 mi SW 10.4 mph - 0.53 in Rain , Thunderstorm Heavy Thunderstorms and Rain
7:01 PM 73.4 °F - 71.6 °F 94% 30.07 in 0.8 mi Variable 6.9 mph - N/A Rain , Thunderstorm Heavy Thunderstorms and Rain
7:05 PM 73.4 °F - 71.6 °F 94% 30.07 in 0.8 mi SSE 3.5 mph - N/A Rain , Thunderstorm Heavy Thunderstorms and Rain
7:08 PM 73.4 °F - 71.6 °F 94% 30.07 in 0.8 mi Variable 1.2 mph - N/A Rain , Thunderstorm Heavy Thunderstorms and Rain
7:12 PM 73.4 °F - 71.6 °F 94% 30.07 in 0.8 mi Variable 2.3 mph - N/A Rain , Thunderstorm Light Thunderstorms and Rain
7:13 PM 73.4 °F - 71.6 °F 94% 30.07 in 1.0 mi WSW 3.5 mph - N/A Rain , Thunderstorm Light Thunderstorms and Rain
7:14 PM 73.4 °F - 71.6 °F 94% 30.07 in 1.0 mi WSW 3.5 mph - N/A Rain , Thunderstorm Light Thunderstorms and Rain
7:15 PM 73.4 °F - 71.6 °F 94% 30.07 in 1.0 mi WSW 3.5 mph - N/A Rain , Thunderstorm Light Thunderstorms and Rain
7:16 PM 73.4 °F - 71.6 °F 94% 30.07 in 1.2 mi West 3.5 mph - N/A Rain , Thunderstorm Light Thunderstorms and Rain
7:17 PM 73.4 °F - 71.6 °F 94% 30.07 in 1.2 mi West 3.5 mph - N/A Rain Light Rain
7:18 PM 73.4 °F - 71.6 °F 94% 30.07 in 1.5 mi WSW 3.5 mph - N/A Rain Light Rain
7:19 PM 73.4 °F - 71.6 °F 94% 30.07 in 2.0 mi WSW 3.5 mph - N/A   Overcast
7:20 PM 73.4 °F - 71.6 °F 94% 30.07 in 3.0 mi WSW 3.5 mph - N/A   Overcast
7:22 PM 73.4 °F - 71.6 °F 94% 30.07 in 4.0 mi WSW 3.5 mph - N/A   Overcast
7:32 PM 73.4 °F - 73.4 °F 100% 30.08 in 10.0 mi WNW 8.1 mph - N/A Rain Heavy Rain
7:37 PM 73.4 °F - 73.4 °F 100% 30.07 in 4.0 mi West 5.8 mph - N/A Rain Heavy Rain
7:40 PM 73.4 °F - 71.6 °F 94% 30.07 in 2.0 mi WSW 9.2 mph - N/A Rain Heavy Rain
7:41 PM 73.4 °F - 71.6 °F 94% 30.07 in 1.5 mi SW 8.1 mph - N/A Rain Heavy Rain
7:42 PM 73.4 °F - 71.6 °F 94% 30.07 in 1.2 mi WSW 6.9 mph - N/A Rain Heavy Rain
7:43 PM 73.4 °F - 71.6 °F 94% 30.07 in 1.0 mi WSW 5.8 mph - N/A Rain Heavy Rain
7:46 PM 73.4 °F - 71.6 °F 94% 30.07 in 1.0 mi WSW 5.8 mph - N/A Rain Light Rain
7:51 PM 73.4 °F - 71.6 °F 94% 30.07 in 1.2 mi WSW 3.5 mph - N/A Rain Light Rain
7:52 PM 73.4 °F - 71.6 °F 94% 30.07 in 1.8 mi WSW 4.6 mph - N/A Rain Light Rain
7:53 PM 73.4 °F - 71.6 °F 94% 30.07 in 2.5 mi SW 4.6 mph - N/A Rain , Thunderstorm Light Thunderstorms and Rain
7:54 PM 73.4 °F - 71.6 °F 94% 30.07 in 3.0 mi SW 4.6 mph - N/A Rain , Thunderstorm Light Thunderstorms and Rain
7:58 PM 73.2 °F - 72.0 °F 96% 30.08 in 5.0 mi South 4.6 mph - 0.37 in Rain , Thunderstorm Light Thunderstorms and Rain
8:08 PM 73.4 °F - 71.6 °F 94% 30.07 in 9.0 mi SSE 3.5 mph - N/A   Mostly Cloudy
8:12 PM 73.4 °F - 71.6 °F 94% 30.07 in 10.0 mi SE 3.5 mph - N/A Rain Light Rain
8:39 PM 73.4 °F - 73.4 °F 100% 30.07 in 10.0 mi ESE 5.8 mph - N/A   Mostly Cloudy
8:58 PM 72.7 °F - 72.3 °F 99% 30.08 in 10.0 mi South 2.3 mph - 0.01 in   Mostly Cloudy
9:46 PM 73.4 °F - 73.4 °F 100% 30.09 in 10.0 mi SE 1.2 mph - N/A   Overcast
9:50 PM 73.4 °F - 73.4 °F 100% 30.09 in 10.0 mi South 2.3 mph - N/A   Overcast
9:58 PM 72.9 °F - 72.7 °F 99% 30.10 in 10.0 mi SSW 1.2 mph - N/A   Overcast
10:27 PM 73.4 °F - 73.4 °F 100% 30.08 in 10.0 mi SSW 6.9 mph - N/A   Overcast
10:31 PM 73.4 °F - 73.4 °F 100% 30.08 in 10.0 mi South 5.8 mph - N/A   Mostly Cloudy
10:58 PM 72.3 °F - 72.0 °F 99% 30.09 in 10.0 mi SW 5.8 mph - N/A   Clear
11:58 PM 72.5 °F - 72.1 °F 99% 30.09 in 10.0 mi SW 4.6 mph - N/A   Partly Cloudy